User: anonymous   Login
Location: Boiro
(42.6475°N, 8.8834°W)
Time: 19:14:26
(UTC+01:00)
Language:

S-56A Canister/Altair - Orbit

View from above orbital plane
View from above orbital plane
View from above satellite
View from above satellite

Ground track
Ground track

The orbit data is extracted from the following two-line orbital elements,

1 00082U 61004B   21339.42332964 -.00000102  00000-0 -43741-4 0  9990
2 00082  38.8580  13.7696 1174742 150.2513 217.0539 12.26012454873595
Epoch (UTC): 05 December 2021 10:09:35
Eccentricity: 0.1174742
inclination: 38.8580°
perigee height: 633 km
apogee height: 2500 km
right ascension of ascending node: 13.7696°
argument of perigee: 150.2513°
revolutions per day: 12.26012454
mean anomaly at epoch: 217.0539°
orbit number at epoch: 87359

The dashed part of the orbit path shows where the satellite is in the earth's shadow,  

DLR